Weather History for Pinedale, WY

Change the Weather History Date:

Tuesday, November 6, 2012

  Actual Average (KBPI) Record (KBPI)
Temperature  
Mean Temperature 40 °F 29 °F  
Max Temperature 57 °F 44 °F 64 °F (1999)
Min Temperature 24 °F 14 °F -10 °F (2003)
Degree Days  
Heating Degree Days 24 36  
Month to date heating degree days 208  
Since 1 July heating degree days 1788  
Cooling Degree Days 0 0  
Month to date cooling degree days 0  
Year to date cooling degree days 35  
Moisture  
Dew Point 29 °F    
Average Humidity 72    
Maximum Humidity 100    
Minimum Humidity 31    
Precipitation  
Precipitation 0.00 in 0.01 in 0.22 in (1990)
Month to date precipitation 0.05  
Year to date precipitation 6.02  
Sea Level Pressure  
Sea Level Pressure 30.34 in    
Wind  
Wind Speed 12 mph (NW)    
Max Wind Speed 21 mph    
Max Gust Speed 23 mph    
Visibility 10 miles    
Events      
T = Trace of Precipitation, MM = Missing Value Source: NWS Daily Summary

Daily Weather History Graph

Daily Weather History Graph

Search for Another Location

Airport:

Trip Planner

Search our weather history database for the weather conditions in past years. The results will help you decide how hot, cold, wet, or windy it might be!

Date:

Astronomy

Nov. 06, 2012 Rise Set
Actual Time 7:00 AM MST 5:04 PM MST
Civil Twilight 6:30 AM MST 5:34 PM MST
Nautical Twilight 5:56 AM MST 6:08 PM MST
Astronomical Twilight 5:23 AM MST 6:41 PM MST
Moon 11:49 PM MST (11/6) 12:53 PM MST (11/6)
Length of Visible Light 11h 04m
Length of Day
10h 04m
Waning Gibbous, 52% of the Moon is Illuminated
Nov 6
Waning Gibbous
Nov 6
Last Quarter
Nov 13
New
Nov 20
First Quarter
Nov 28
Full

Hourly Weather History & Observations

Time (MST) Temp. Windchill Dew Point Humidity Pressure Visibility Wind Dir Wind Speed Gust Speed Precip Events Conditions
12:15 AM 32.0 °F 22.5 °F 30.2 °F 93% 30.39 in 10.0 mi NNW 12.7 mph - N/A   Clear
12:35 AM 32.0 °F 22.1 °F 30.2 °F 93% 30.39 in 10.0 mi NW 13.8 mph - N/A   Clear
12:55 AM 32.0 °F 22.1 °F 32.0 °F 100% 30.38 in 10.0 mi NW 13.8 mph - N/A   Clear
1:15 AM 32.0 °F 22.5 °F 30.2 °F 93% 30.39 in 10.0 mi NW 12.7 mph - N/A   Clear
1:35 AM 32.0 °F 21.6 °F 30.2 °F 93% 30.38 in 10.0 mi NW 15.0 mph - N/A   Scattered Clouds
1:55 AM 32.0 °F 22.1 °F 30.2 °F 93% 30.38 in 10.0 mi NW 13.8 mph - N/A   Scattered Clouds
2:15 AM 32.0 °F 23.6 °F 30.2 °F 93% 30.38 in 10.0 mi WNW 10.4 mph - N/A   Scattered Clouds
2:35 AM 32.0 °F 24.8 °F 30.2 °F 93% 30.38 in 10.0 mi NW 8.1 mph - N/A   Scattered Clouds
2:55 AM 32.0 °F 23.0 °F 30.2 °F 93% 30.37 in 10.0 mi NW 11.5 mph - N/A   Scattered Clouds
3:15 AM 32.0 °F 22.5 °F 30.2 °F 93% 30.37 in 10.0 mi NW 12.7 mph - N/A   Mostly Cloudy
3:35 AM 32.0 °F 23.0 °F 30.2 °F 93% 30.37 in 10.0 mi NW 11.5 mph - N/A   Scattered Clouds
3:55 AM 32.0 °F 21.2 °F 30.2 °F 93% 30.36 in 10.0 mi WNW 16.1 mph - N/A   Scattered Clouds
4:15 AM 32.0 °F 21.6 °F 30.2 °F 93% 30.36 in 10.0 mi NW 15.0 mph - N/A   Scattered Clouds
4:35 AM 32.0 °F 21.6 °F 30.2 °F 93% 30.36 in 10.0 mi WNW 15.0 mph - N/A   Clear
4:55 AM 32.0 °F 22.1 °F 30.2 °F 93% 30.36 in 10.0 mi WNW 13.8 mph - N/A   Clear
5:15 AM 32.0 °F 22.1 °F 30.2 °F 93% 30.37 in 10.0 mi WNW 13.8 mph - N/A   Scattered Clouds
5:35 AM 32.0 °F 23.0 °F 30.2 °F 93% 30.37 in 10.0 mi WNW 11.5 mph - N/A   Scattered Clouds
5:55 AM 32.0 °F 22.1 °F 30.2 °F 93% 30.37 in 10.0 mi WNW 13.8 mph - N/A   Clear
6:15 AM 32.0 °F 21.6 °F 30.2 °F 93% 30.37 in 10.0 mi WNW 15.0 mph - N/A   Scattered Clouds
6:35 AM 32.0 °F 21.2 °F 30.2 °F 93% 30.37 in 10.0 mi WNW 16.1 mph - N/A   Scattered Clouds
6:55 AM 32.0 °F 21.6 °F 30.2 °F 93% 30.38 in 10.0 mi WNW 15.0 mph - N/A   Clear
7:15 AM 32.0 °F 21.6 °F 30.2 °F 93% 30.38 in 10.0 mi WNW 15.0 mph - N/A   Clear
7:35 AM 32.0 °F 22.1 °F 32.0 °F 100% 30.38 in 10.0 mi WNW 13.8 mph - N/A   Clear
7:55 AM 33.8 °F 25.3 °F 32.0 °F 93% 30.39 in 10.0 mi WNW 11.5 mph - N/A   Clear
8:15 AM 32.0 °F 25.6 °F 32.0 °F 100% 30.40 in 10.0 mi NNW 6.9 mph - N/A   Clear
8:35 AM 33.8 °F 24.8 °F 32.0 °F 93% 30.40 in 10.0 mi NW 12.7 mph - N/A   Clear
8:55 AM 37.4 °F 29.8 °F 32.0 °F 81% 30.39 in 10.0 mi NW 11.5 mph - N/A   Clear
9:15 AM 41.0 °F 33.9 °F 33.8 °F 76% 30.39 in 10.0 mi NW 12.7 mph - N/A   Clear
9:35 AM 44.6 °F 38.1 °F 33.8 °F 66% 30.40 in 10.0 mi NW 13.8 mph - N/A   Clear
9:55 AM 46.4 °F 39.5 °F 33.8 °F 62% 30.39 in 10.0 mi NW 17.3 mph 23.0 mph N/A   Clear
10:15 AM 48.2 °F - 33.8 °F 58% 30.39 in 10.0 mi NW 15.0 mph 20.7 mph N/A   Clear
10:35 AM 50.0 °F - 33.8 °F 54% 30.39 in 10.0 mi NW 15.0 mph 20.7 mph N/A   Clear
10:55 AM 51.8 °F - 33.8 °F 50% 30.38 in 10.0 mi NW 17.3 mph 21.9 mph N/A   Clear
11:15 AM 51.8 °F - 32.0 °F 47% 30.38 in 10.0 mi NW 20.7 mph - N/A   Clear
11:35 AM 53.6 °F - 32.0 °F 44% 30.37 in 10.0 mi WNW 11.5 mph - N/A   Clear
11:55 AM 53.6 °F - 30.2 °F 41% 30.36 in 10.0 mi NW 16.1 mph 21.9 mph N/A   Clear
12:15 PM 55.4 °F - 30.2 °F 38% 30.35 in 10.0 mi WNW 17.3 mph 20.7 mph N/A   Clear
12:35 PM 55.4 °F - 30.2 °F 38% 30.34 in 10.0 mi WNW 16.1 mph 23.0 mph N/A   Clear
12:55 PM 55.4 °F - 30.2 °F 38% 30.34 in 10.0 mi WNW 13.8 mph 20.7 mph N/A   Clear
1:15 PM 55.4 °F - 30.2 °F 38% 30.33 in 10.0 mi WNW 11.5 mph 20.7 mph N/A   Clear
1:35 PM 57.2 °F - 28.4 °F 33% 30.32 in 10.0 mi NW 17.3 mph 21.9 mph N/A   Clear
1:55 PM 57.2 °F - 28.4 °F 33% 30.32 in 10.0 mi NW 16.1 mph 20.7 mph N/A   Clear
2:15 PM 57.2 °F - 28.4 °F 33% 30.32 in 10.0 mi NW 16.1 mph 21.9 mph N/A   Clear
2:35 PM 57.2 °F - 28.4 °F 33% 30.32 in 10.0 mi NW 13.8 mph 19.6 mph N/A   Clear
2:55 PM 57.2 °F - 26.6 °F 31% 30.31 in 10.0 mi NW 15.0 mph 19.6 mph N/A   Scattered Clouds
3:15 PM 57.2 °F - 28.4 °F 33% 30.31 in 10.0 mi NNW 15.0 mph - N/A   Scattered Clouds
3:35 PM 55.4 °F - 28.4 °F 36% 30.31 in 10.0 mi NW 15.0 mph 19.6 mph N/A   Scattered Clouds
3:55 PM 55.4 °F - 28.4 °F 36% 30.31 in 10.0 mi NW 12.7 mph - N/A   Scattered Clouds
4:15 PM 53.6 °F - 28.4 °F 38% 30.31 in 10.0 mi NW 9.2 mph - N/A   Clear
4:35 PM 51.8 °F - 28.4 °F 41% 30.31 in 10.0 mi NW 8.1 mph - N/A   Clear
4:55 PM 46.4 °F 42.9 °F 28.4 °F 50% 30.31 in 10.0 mi West 6.9 mph - N/A   Clear
5:15 PM 42.8 °F 38.6 °F 28.4 °F 57% 30.31 in 10.0 mi WNW 6.9 mph - N/A   Clear
5:35 PM 41.0 °F 37.1 °F 28.4 °F 61% 30.31 in 10.0 mi NW 5.8 mph - N/A   Clear
5:55 PM 37.4 °F 29.8 °F 26.6 °F 65% 30.31 in 10.0 mi West 11.5 mph - N/A   Clear
6:15 PM 39.2 °F 34.2 °F 28.4 °F 65% 30.31 in 10.0 mi West 6.9 mph - N/A   Clear
6:35 PM 37.4 °F - 28.4 °F 70% 30.31 in 10.0 mi Calm Calm - N/A   Mostly Cloudy
6:55 PM 35.6 °F 28.6 °F 26.6 °F 70% 30.31 in 10.0 mi NW 9.2 mph - N/A   Scattered Clouds
7:15 PM 35.6 °F - 26.6 °F 70% 30.31 in 10.0 mi Calm Calm - N/A   Mostly Cloudy
7:35 PM 35.6 °F 30.7 °F 26.6 °F 70% 30.31 in 10.0 mi NW 5.8 mph - N/A   Mostly Cloudy
7:55 PM 35.6 °F 30.7 °F 26.6 °F 70% 30.31 in 10.0 mi North 5.8 mph - N/A   Mostly Cloudy
8:15 PM 32.0 °F 25.6 °F 26.6 °F 80% 30.31 in 10.0 mi West 6.9 mph - N/A   Overcast
8:35 PM 32.0 °F 24.8 °F 26.6 °F 80% 30.30 in 10.0 mi WNW 8.1 mph - N/A   Mostly Cloudy
8:55 PM 30.2 °F 25.4 °F 24.8 °F 80% 30.31 in 10.0 mi NW 4.6 mph - N/A   Mostly Cloudy
9:15 PM 30.2 °F 23.4 °F 24.8 °F 80% 30.30 in 10.0 mi NW 6.9 mph - N/A   Scattered Clouds
9:35 PM 28.4 °F 21.2 °F 23.0 °F 80% 30.30 in 10.0 mi NW 6.9 mph - N/A   Mostly Cloudy
9:55 PM 28.4 °F 21.2 °F 23.0 °F 80% 30.30 in 10.0 mi WNW 6.9 mph - N/A   Mostly Cloudy
10:15 PM 26.6 °F 19.1 °F 23.0 °F 86% 30.29 in 10.0 mi NW 6.9 mph - N/A   Scattered Clouds
10:35 PM 28.4 °F 22.2 °F 23.0 °F 80% 30.29 in 10.0 mi WNW 5.8 mph - N/A   Scattered Clouds
10:55 PM 26.6 °F 18.2 °F 23.0 °F 86% 30.29 in 10.0 mi West 8.1 mph - N/A   Mostly Cloudy
11:15 PM 24.8 °F 16.9 °F 23.0 °F 93% 30.28 in 10.0 mi WNW 6.9 mph - N/A   Scattered Clouds
11:35 PM 24.8 °F 16.9 °F 23.0 °F 93% 30.28 in 10.0 mi WNW 6.9 mph - N/A   Scattered Clouds
11:55 PM 24.8 °F 16.1 °F 23.0 °F 93% 30.28 in 10.0 mi WNW 8.1 mph - N/A   Mostly Cloudy